Dewpoint
26 25 22 20 17 18 21 19 13 13 16 9 5 4 9 24 29 34 36 41 51 46 41 42 46 47 47 47 49 52 51 52 51 52 54 55 60 62 62 63 63 63 63 66 67 68 67 69 68 68 71 70 70 71 70 69 71 71 71 72 71 72 73 71 71 72 71 72 72 72 73 72 73 73 73 73 73 73 74 74 74 74 74 74 74 74
25 24 21 21 19 19 19 16 11 7 7 6 6 5 11 21 27 29 32 44 52 40 39 44 45 46 48 49 51 53 50 50 50 52 53 57 61 62 63 63 63 63 64 66 65 67 68 68 69 68 68 70 69 70 70 70 71 72 71 71 72 73 73 72 72 73 72 71 71 71 72 72 72 72 73 72 73 73 73 73 73 74 75 74 74 75
24 22 22 23 22 22 18 16 12 9 9 4 4 9 9 16 25 27 43 44 49 43 43 44 46 49 51 52 54 56 57 58 55 53 54 58 60 61 61 61 62 61 62 63 65 67 67 69 68 67 68 69 69 70 70 71 72 72 73 72 72 74 73 73 73 74 73 72 72 72 73 72 73 73 73 72 73 74 74 73 73 74 74 74 74 74
20 22 24 25 25 19 14 11 13 10 7 4 2 2 2 21 18 20 35 43 47 40 44 48 49 51 53 54 56 58 61 61 62 58 57 59 58 58 58 58 59 63 62 63 65 68 70 68 67 67 67 68 69 70 71 71 71 72 73 72 73 73 73 73 74 74 73 73 73 72 73 74 74 73 74 73 73 74 74 73 73 73 73 73 74 74
20 21 23 23 18 16 12 9 12 8 6 4 7 4 3 5 9 19 30 38 48 50 50 46 47 48 50 50 53 56 58 58 58 58 58 59 60 61 61 62 63 62 62 62 63 64 66 68 67 67 67 68 68 69 70 71 71 71 72 73 73 72 73 73 75 75 73 74 73 74 74 74 73 74 73 72 72 72 74 74 73 73 73 73 73 74
19 20 23 21 18 14 11 5 8 4 -0 -0 2 4 2 3 11 9 24 35 39 42 44 41 40 43 47 51 52 54 56 56 59 56 57 59 60 60 62 64 64 64 66 63 65 65 65 67 67 67 67 67 68 68 69 70 72 72 73 73 73 72 73 73 74 74 73 73 72 72 72 71 71 71 72 71 71 72 72 73 74 74 74 73 74 74
18 19 18 16 15 11 9 6 6 2 -0 -0 1 8 8 8 8 3 13 20 31 34 40 38 39 41 47 49 51 54 54 54 56 57 57 59 60 60 62 63 63 63 61 63 64 66 65 66 67 67 67 67 67 68 70 71 71 72 72 72 72 72 72 73 73 73 74 73 73 72 72 72 71 71 72 72 73 73 73 73 73 74 74 74 74 74
20 13 10 13 13 10 7 6 5 4 1 -0 2 8 10 7 8 6 4 1 20 26 34 43 46 43 43 45 52 53 52 52 52 53 55 57 58 59 61 62 63 63 62 62 64 65 66 66 66 66 66 67 68 69 71 70 71 71 71 71 71 72 73 73 73 73 73 73 72 72 71 72 72 72 72 72 72 74 74 73 73 73 73 73 74 74
17 15 12 12 14 5 3 7 9 10 5 6 8 9 5 5 7 7 3 2 7 7 34 45 44 42 43 47 53 53 48 49 49 51 52 56 57 59 61 62 63 62 62 62 64 65 66 67 67 68 66 67 67 70 71 71 71 71 71 71 71 72 73 72 73 73 73 74 73 72 72 72 73 72 73 73 73 73 74 72 73 73 73 73 73 73
15 10 10 12 9 4 6 4 5 8 4 6 10 10 8 8 10 10 6 11 19 13 39 43 42 43 43 49 50 50 49 49 50 51 52 56 57 59 62 63 64 65 63 63 64 65 66 67 68 69 69 68 69 71 72 72 72 72 71 71 72 71 72 72 73 73 72 73 73 72 72 72 72 73 73 72 72 71 72 72 72 72 73 73 73 73
11 27 25 12 8 6 8 5 5 4 2 9 4 6 8 10 16 24 20 20 21 13 23 39 40 41 40 43 46 47 47 50 49 52 53 55 54 56 59 63 64 63 64 64 65 65 66 66 66 67 68 69 70 70 71 71 71 71 71 72 72 72 72 73 72 72 72 72 72 71 71 72 71 71 71 71 71 71 70 70 71 72 72 73 73 74
6 9 9 10 19 14 9 6 8 8 7 2 5 10 7 9 30 35 27 33 11 17 28 35 36 37 36 39 44 46 50 49 50 49 53 52 55 58 60 62 63 64 64 65 64 64 64 65 66 66 66 67 68 70 70 69 70 71 71 71 70 71 72 72 72 72 71 71 71 70 70 70 70 71 70 70 71 72 71 71 71 72 72 72 72 73
2 2 8 10 31 8 13 7 4 7 7 3 0 7 6 16 19 14 26 11 16 21 33 35 37 38 39 41 43 44 46 47 51 52 51 53 56 58 59 61 62 63 63 64 64 65 65 65 65 66 66 66 67 68 69 69 69 70 71 71 70 70 71 71 71 71 71 71 70 70 69 70 70 70 70 71 72 72 72 72 72 72 72 72 72 72
1 7 6 9 13 19 8 5 6 8 11 6 7 20 14 14 14 13 19 23 29 30 32 35 37 36 39 39 46 46 48 50 52 53 52 56 57 58 59 59 61 62 62 63 64 65 65 66 67 67 67 67 67 67 68 68 69 70 69 69 69 69 70 70 70 69 70 70 70 70 71 71 70 71 71 71 72 72 72 72 72 72 72 72 72 72
12 12 16 9 6 14 13 9 8 11 9 8 9 9 16 13 14 13 16 15 25 29 30 38 32 32 35 38 47 48 51 54 55 56 56 56 57 58 58 59 60 61 62 64 63 64 64 66 66 67 68 67 66 67 67 67 67 68 67 68 67 68 68 68 68 68 68 70 71 72 72 71 71 71 72 73 73 73 73 73 72 72 72 72 72 73
13 13 13 13 9 10 9 13 15 17 15 11 11 15 14 14 25 11 18 20 26 31 32 35 35 38 37 45 48 51 53 54 55 55 57 57 58 59 59 59 59 60 61 63 65 65 65 65 66 68 68 67 67 67 68 67 67 67 67 68 68 68 69 69 69 68 68 69 71 71 72 72 73 74 74 74 74 74 73 73 73 73 73 73 73 73
20 13 14 17 16 8 7 22 22 22 17 18 12 14 12 15 19 27 32 30 32 32 32 38 36 40 44 45 46 51 53 54 54 55 56 58 59 59 60 60 60 60 63 65 66 66 66 66 66 67 68 68 68 68 68 68 68 67 68 68 68 68 69 70 70 69 69 68 70 71 71 72 72 73 73 73 73 74 74 73 73 73 73 73 73 73
10 10 16 19 18 22 18 25 26 25 19 11 9 9 15 18 16 17 17 29 34 32 34 38 35 38 39 39 45 51 52 54 55 55 58 62 63 63 63 63 63 63 64 65 66 66 66 66 66 66 67 67 67 67 67 68 68 68 68 68 68 68 68 70 71 70 70 69 70 71 72 72 72 73 73 73 73 73 74 73 73 73 72 73 73 74
12 11 14 18 20 27 28 26 25 26 24 14 12 14 19 21 21 27 24 21 25 32 33 39 43 44 39 42 50 54 56 59 59 59 62 63 64 64 64 64 64 64 64 64 64 65 65 65 66 66 66 67 67 67 68 68 68 68 69 68 68 68 69 70 71 71 71 71 70 71 72 72 71 72 73 74 74 73 73 73 73 73 73 73 73 74
19 14 19 22 22 25 28 27 26 24 24 28 25 24 24 22 25 28 24 23 28 30 33 33 41 38 49 49 52 56 58 59 60 61 63 64 64 64 64 64 64 63 63 64 64 65 65 65 66 66 66 67 67 68 68 68 69 69 70 69 68 68 69 69 70 71 70 71 70 70 71 72 72 72 73 74 73 73 73 73 73 72 72 72 73 73
14 25 20 21 25 28 27 28 26 25 22 24 23 24 24 25 25 29 38 24 26 30 33 33 32 40 49 54 55 57 59 60 61 62 63 63 63 64 64 64 64 64 63 63 64 64 65 65 66 66 66 67 68 68 68 68 68 68 69 69 69 68 67 68 69 70 70 71 70 70 71 72 73 73 73 73 73 73 73 73 74 73 72 72 72 72
26 25 22 26 25 28 28 30 29 26 24 25 25 28 24 22 24 24 25 31 29 35 32 31 32 43 51 60 57 58 59 60 61 62 63 63 63 63 63 63 64 64 64 64 64 64 65 65 66 66 66 66 66 67 67 67 69 68 68 68 68 68 68 68 68 69 70 70 70 70 70 69 70 71 71 70 72 72 73 72 72 73 73 72 71 71
32 32 28 28 27 27 29 30 35 29 29 28 26 26 26 23 27 27 22 27 30 34 38 37 39 41 54 59 60 59 59 60 61 62 63 63 63 62 62 63 63 63 63 63 64 64 64 64 65 65 66 66 66 66 67 67 68 68 69 68 68 68 68 69 68 69 69 68 69 69 68 68 68 69 69 69 69 70 70 71 72 72 72 72 72 72
65 29 29 36 41 41 36 35 35 35 30 28 28 30 26 26 26 26 26 34 26 34 29 36 40 42 52 59 59 59 59 60 61 62 62 62 62 62 62 62 62 62 62 63 63 64 63 64 64 64 65 65 66 66 66 67 67 68 69 68 68 68 68 69 68 68 68 68 69 68 68 68 68 69 69 69 70 69 70 70 70 71 72 72 72 72
32 39 32 34 36 34 33 32 34 33 32 31 28 29 30 28 30 36 34 38 30 34 32 31 28 42 52 60 58 56 55 58 60 62 62 62 62 61 62 62 62 62 62 62 63 63 63 63 64 64 65 66 66 65 65 64 64 65 67 68 68 68 68 68 69 69 68 70 70 70 67 66 67 67 69 69 71 70 70 70 70 70 70 72 72 72
31 41 36 27 25 25 27 25 27 26 30 33 32 29 29 29 29 29 33 35 25 37 36 37 41 48 55 57 55 53 54 55 57 60 62 62 62 61 61 61 61 61 61 62 62 63 63 63 63 64 64 64 66 65 64 65 65 65 65 65 67 67 69 68 68 69 70 70 71 71 70 67 66 68 69 70 70 69 70 69 70 70 70 71 71 71
34 38 36 38 34 34 36 37 37 37 33 27 27 29 28 29 28 30 33 32 26 37 41 44 49 51 53 54 53 53 53 53 54 57 60 61 62 62 61 61 60 60 60 61 62 62 62 63 62 62 61 60 62 62 63 65 64 64 66 65 65 65 66 67 70 68 68 69 71 71 72 72 70 70 69 70 71 70 71 69 69 69 69 70 71 70
35 27 32 39 37 35 34 37 31 32 26 29 27 25 27 26 27 28 25 26 40 39 38 48 52 51 52 53 53 52 54 55 54 55 58 61 61 60 60 61 64 61 60 61 61 61 61 61 60 59 60 61 61 62 61 63 63 63 66 66 66 64 65 66 68 66 66 66 68 70 71 72 72 72 72 72 72 71 71 71 70 70 70 71 70 69
33 27 29 29 28 28 28 28 26 22 21 19 26 28 26 29 30 32 41 33 36 34 38 48 52 51 52 52 53 52 54 53 54 55 56 59 60 60 59 59 58 58 60 60 60 60 60 58 59 59 59 60 61 61 60 61 61 62 63 65 66 65 63 66 66 65 63 63 64 67 71 72 72 72 71 71 71 71 72 72 72 71 70 70 71 71
36 36 36 26 27 26 27 24 22 20 19 26 32 32 38 42 43 45 47 48 45 47 49 52 51 51 53 53 53 52 54 53 54 55 55 56 59 59 58 58 57 58 58 57 57 57 58 58 60 60 60 59 61 60 59 61 61 61 62 63 64 65 63 66 65 65 64 63 63 65 68 71 71 70 71 71 70 71 71 71 71 71 71 71 70 70
28 33 45 29 28 28 27 25 21 20 25 35 36 36 38 43 45 46 46 47 48 48 49 49 48 48 51 53 53 54 56 56 55 54 55 56 58 57 56 55 55 54 54 55 56 56 58 59 59 60 60 59 61 60 59 60 61 61 61 62 63 63 63 64 64 64 63 64 64 64 66 69 70 70 69 69 70 70 70 70 70 70 70 70 70 70
31 30 33 32 25 25 28 24 21 21 29 38 38 39 43 43 44 46 47 48 48 48 48 48 48 48 52 54 54 54 54 53 54 53 53 53 50 51 50 50 52 53 54 55 57 58 59 60 60 61 60 60 61 61 58 58 60 61 60 62 63 62 62 62 63 63 63 64 64 64 66 68 68 67 67 68 68 69 70 70 69 69 69 69 70 70
32 32 28 28 24 30 26 22 21 22 34 36 37 38 47 48 49 51 52 53 51 49 48 48 48 52 54 55 53 53 53 53 54 54 53 54 56 54 52 51 53 55 56 56 59 60 59 59 60 60 61 61 61 60 57 59 60 60 61 63 63 63 62 62 62 62 62 63 63 64 65 66 66 66 65 65 66 68 70 69 69 68 68 68 69 70
37 29 28 31 23 30 27 24 29 30 35 36 40 46 49 48 49 49 51 52 53 53 52 53 53 55 54 54 53 52 52 52 52 54 54 54 53 52 51 53 54 55 55 56 58 59 57 58 59 61 59 58 58 60 61 63 63 64 65 65 64 62 62 61 61 61 61 61 62 63 64 64 65 64 64 64 64 65 67 68 68 68 69 69 69 69
33 31 24 32 23 23 29 28 36 33 36 43 40 47 49 49 49 49 49 52 54 54 53 54 55 56 56 55 55 55 56 56 56 56 55 56 56 51 50 53 49 55 56 55 54 55 56 57 57 58 58 57 61 62 62 62 63 62 61 61 62 61 60 60 61 61 61 61 62 62 63 63 63 63 64 64 64 64 65 67 68 68 69 69 69 69
32 29 36 28 31 28 26 28 27 36 41 44 40 42 51 48 48 47 47 47 49 54 55 55 56 57 57 56 56 55 56 58 56 56 55 54 49 46 46 47 48 49 53 54 54 55 55 54 52 53 55 63 60 59 60 60 62 60 60 61 61 60 60 61 61 61 61 62 63 63 63 62 62 63 63 64 64 64 64 65 66 67 68 70 69 69
31 36 32 28 33 24 29 29 30 43 43 39 42 42 42 44 47 46 45 46 48 50 54 55 56 57 57 57 57 55 54 52 49 48 48 50 46 47 45 45 46 48 52 54 52 54 55 54 53 56 59 60 60 59 59 60 61 60 60 60 60 61 61 61 61 61 62 63 62 63 63 63 63 63 63 63 64 64 64 64 64 65 67 68 68 68
34 31 34 28 33 34 31 28 35 38 37 40 42 43 45 48 48 48 46 46 48 48 47 48 48 48 50 51 53 56 53 47 46 47 47 49 47 45 45 45 46 47 47 52 56 53 52 54 55 59 57 58 60 60 61 61 60 59 59 61 61 61 61 61 61 62 63 62 63 63 63 63 63 63 63 63 63 63 64 64 65 65 66 67 68 68
32 36 35 31 31 30 30 26 33 36 37 43 41 43 45 46 47 47 46 44 48 51 48 47 47 48 48 48 47 49 47 44 45 46 46 48 47 46 45 46 47 47 47 48 50 50 52 55 56 57 58 57 56 58 60 59 59 59 60 62 62 62 61 61 61 62 62 63 63 63 63 63 63 63 63 63 63 63 64 64 64 65 66 67 67 68
40 40 38 38 38 38 32 38 38 40 39 40 42 45 46 47 46 46 42 44 49 50 48 48 48 48 47 50 50 48 45 42 45 46 47 48 47 47 47 47 48 48 47 49 52 53 55 57 53 52 53 54 55 56 58 60 60 61 61 62 62 61 61 61 62 62 63 63 63 63 63 63 63 63 63 63 63 63 64 64 65 65 65 65 66 66
39 40 41 36 35 40 45 40 41 41 45 44 45 46 46 48 47 43 41 45 49 47 47 46 46 48 48 47 47 49 48 47 47 48 48 47 46 46 46 49 50 50 49 50 54 60 51 53 55 53 53 54 56 58 60 60 60 60 61 62 61 60 61 61 62 63 63 63 63 63 63 63 63 62 62 63 63 63 65 65 64 64 64 64 65 65
39 39 43 41 36 37 40 40 39 40 42 43 45 46 48 45 42 42 46 50 48 48 48 47 46 47 48 47 48 47 48 49 52 48 47 47 48 46 45 46 48 49 49 53 57 58 53 51 53 53 53 55 58 60 60 60 59 60 60 60 59 60 61 62 62 62 62 62 62 63 62 62 62 63 63 63 63 63 63 63 64 64 64 64 64 64
35 35 34 34 36 41 43 40 36 32 41 46 46 46 48 45 45 48 49 48 47 48 47 48 47 47 47 47 48 48 48 48 48 47 46 47 48 46 46 47 49 49 49 49 49 53 56 51 52 53 55 57 59 59 60 60 59 59 60 59 59 60 61 62 62 62 62 62 62 62 62 62 62 62 62 62 63 62 62 62 62 63 64 64 64 64
42 37 39 38 39 38 38 37 36 41 45 46 46 44 47 48 49 50 49 46 47 48 48 47 47 48 47 49 46 47 49 48 47 47 46 47 47 47 48 49 51 50 50 50 51 55 57 53 54 55 56 58 59 59 59 59 59 60 60 59 60 61 62 62 61 61 62 62 62 61 61 62 62 61 62 62 62 62 61 61 61 62 63 63 63 63
37 39 42 39 43 42 41 42 45 47 45 45 46 47 48 49 50 49 48 48 47 47 51 48 47 47 48 48 48 49 47 48 47 47 47 47 46 47 47 48 50 51 51 52 53 57 56 55 55 56 57 58 58 59 59 60 59 60 60 59 61 62 61 60 61 61 61 61 61 61 61 61 61 61 61 61 62 61 61 61 61 61 61 62 62 62
40 43 44 43 43 44 44 45 46 46 45 45 45 45 45 46 49 48 47 47 50 49 48 47 47 46 47 48 47 47 48 47 46 46 47 47 46 47 51 51 52 53 53 53 54 55 56 56 57 57 57 58 58 59 60 60 60 59 59 61 62 61 60 60 61 61 61 61 61 60 60 60 60 60 61 61 61 61 61 61 61 61 60 61 61 62
44 45 45 45 46 41 38 45 45 45 46 46 46 46 46 47 47 48 48 49 49 49 47 48 48 48 47 48 46 46 45 45 45 46 48 48 49 50 51 52 53 54 54 54 54 57 56 57 57 58 58 58 58 58 59 60 60 60 60 61 60 60 60 60 61 61 60 60 60 60 60 59 60 61 61 60 60 61 61 61 60 60 61 61 61 61
42 45 43 43 43 41 42 44 46 46 47 48 47 46 46 47 47 48 49 49 49 49 47 49 49 47 46 44 45 45 45 47 48 48 48 49 51 51 52 54 54 54 54 55 55 57 56 57 57 58 58 58 58 59 59 59 59 59 60 60 60 60 60 60 60 60 60 59 59 59 59 59 62 61 60 60 60 60 60 60 60 60 60 60 61 61
46 50 42 44 44 45 46 46 48 43 44 45 47 48 49 48 47 47 48 47 45 44 46 49 50 47 45 45 47 47 48 50 51 51 51 52 52 53 53 54 55 55 55 55 56 57 57 57 58 59 58 58 58 59 59 59 59 59 59 58 59 59 59 60 60 60 59 59 59 58 59 59 60 60 60 60 60 60 60 60 60 60 60 61 62 62
46 43 45 43 43 43 42 43 48 41 41 44 45 45 45 48 46 47 47 45 45 45 47 46 44 46 47 48 50 50 50 51 51 53 53 53 53 54 55 55 55 55 55 56 56 56 56 58 58 58 58 58 58 59 59 58 59 58 57 58 57 57 57 59 59 58 58 59 59 58 58 59 59 60 60 60 59 60 60 61 59 58 60 60 63 61
47 47 46 43 42 42 44 46 46 44 45 45 46 47 46 46 45 45 46 45 45 46 45 46 48 49 50 50 52 51 51 52 52 53 54 55 55 55 56 56 56 56 56 56 56 56 57 57 59 58 58 58 58 58 58 58 57 55 55 56 56 55 56 57 58 58 57 58 58 58 59 59 59 59 59 59 59 59 60 60 60 54 53 55 60 57